Change the Weather History Date:

Friday, March 14, 2014

  Actual Average Record
Temperature  
Mean Temperature 41 °F -  
Max Temperature 48 °F 44 °F 81 °F (2012)
Min Temperature 34 °F 27 °F 5 °F (1993)
Degree Days  
Heating Degree Days 24    
Moisture  
Dew Point 31 °F    
Average Humidity 70    
Maximum Humidity 86    
Minimum Humidity 52    
Precipitation  
Precipitation 0.00 in - - ()
Sea Level Pressure  
Sea Level Pressure 29.72 in    
Wind  
Wind Speed 14 mph (SW)    
Max Wind Speed 26 mph    
Max Gust Speed 38 mph    
Visibility 10 miles    
Events      
Averages and records for this station are not official NWS values.
T = Trace of Precipitation, MM = Missing Value Source: NWS Daily Summary

Daily Weather History Graph

Daily Weather History Graph

Search for Another Location

Airport or City:

Trip Planner

Search our weather history database for the weather conditions in past years. The results will help you decide how hot, cold, wet, or windy it might be!

Date:

Astronomy

Mar. 14, 2014 Rise Set
Actual Time 7:59 AM EDT 7:51 PM EDT
Civil Twilight 7:31 AM EDT 8:19 PM EDT
Nautical Twilight 6:58 AM EDT 8:51 PM EDT
Astronomical Twilight 6:26 AM EDT 9:24 PM EDT
Moon 6:11 PM EDT (3/14) 6:40 AM EDT (3/14)
Length of Visible Light 12h 47m
Length of Day
11h 51m
Waxing Gibbous, 96% of the Moon is Illuminated
Mar 14
Waxing Gibbous
Mar 16
Full
Mar 23
Last Quarter
Mar 30
New
Apr 7
First Quarter

Hourly Weather History & Observations

Time (EDT) Temp. Windchill Dew Point Humidity Pressure Visibility Wind Dir Wind Speed Gust Speed Precip Events Conditions
12:53 AM 34.0 °F 25.0 °F 28.0 °F 79% 29.88 in 10.0 mi South 12.7 mph - N/A   Clear
1:53 AM 35.1 °F 27.9 °F 28.0 °F 76% 29.86 in 10.0 mi South 9.2 mph - N/A   Clear
2:53 AM 36.0 °F 28.5 °F 28.9 °F 76% 29.84 in 10.0 mi South 10.4 mph - N/A   Clear
3:53 AM 36.0 °F 28.5 °F 28.9 °F 76% 29.82 in 10.0 mi South 10.4 mph - N/A   Clear
4:53 AM 37.0 °F 28.9 °F 28.9 °F 73% 29.78 in 10.0 mi South 12.7 mph - N/A   Clear
5:53 AM 37.9 °F 30.0 °F 30.0 °F 73% 29.74 in 10.0 mi South 12.7 mph 21.9 mph N/A   Clear
6:53 AM 37.9 °F 28.9 °F 30.0 °F 73% 29.72 in 10.0 mi South 16.1 mph - N/A   Clear
7:53 AM 37.9 °F 30.9 °F 30.0 °F 73% 29.70 in 10.0 mi South 10.4 mph 19.6 mph N/A   Clear
8:53 AM 37.9 °F 29.6 °F 30.0 °F 73% 29.69 in 10.0 mi South 13.8 mph 21.9 mph N/A   Clear
9:53 AM 39.9 °F 33.9 °F 30.0 °F 68% 29.68 in 10.0 mi South 9.2 mph 18.4 mph N/A   Clear
10:53 AM 44.1 °F 36.5 °F 30.0 °F 58% 29.64 in 10.0 mi South 17.3 mph 23.0 mph N/A   Clear
11:53 AM 46.0 °F 38.8 °F 30.0 °F 54% 29.61 in 10.0 mi South 18.4 mph 26.5 mph N/A   Clear
12:53 PM 46.9 °F - 30.0 °F 52% 29.60 in 10.0 mi SSW 18.4 mph 26.5 mph N/A   Scattered Clouds
1:53 PM 48.0 °F - 30.9 °F 52% 29.60 in 10.0 mi SW 18.4 mph 35.7 mph N/A   Clear
2:53 PM 46.9 °F - 33.1 °F 59% 29.59 in 10.0 mi SW 26.5 mph 38.0 mph N/A   Clear
3:53 PM 46.0 °F 37.8 °F 34.0 °F 63% 29.60 in 10.0 mi SW 23.0 mph 28.8 mph N/A   Mostly Cloudy
4:53 PM 46.9 °F - 35.1 °F 63% 29.61 in 10.0 mi WSW 20.7 mph - N/A   Scattered Clouds
5:53 PM 45.0 °F 36.4 °F 33.1 °F 63% 29.63 in 10.0 mi WSW 23.0 mph 27.6 mph N/A   Clear
6:53 PM 41.0 °F 33.1 °F 32.0 °F 70% 29.69 in 10.0 mi West 15.0 mph - N/A   Clear
7:53 PM 39.9 °F 29.5 °F 30.9 °F 70% 29.73 in 10.0 mi West 24.2 mph 35.7 mph N/A   Clear
8:53 PM 37.0 °F 26.7 °F 32.0 °F 82% 29.78 in 10.0 mi West 19.6 mph - N/A   Mostly Cloudy
9:53 PM 36.0 °F 26.3 °F 32.0 °F 86% 29.81 in 10.0 mi West 16.1 mph - N/A   Overcast
10:53 PM 35.1 °F 26.9 °F 30.9 °F 85% 29.82 in 10.0 mi WSW 11.5 mph - N/A   Mostly Cloudy
11:53 PM 35.1 °F 26.4 °F 30.9 °F 85% 29.83 in 10.0 mi WSW 12.7 mph - N/A   Scattered Clouds